Hourly Data Report for October 24, 2013

All times are specified in Local Standard Time (LST). Add 1 hour to adjust for Daylight Saving Time where and when it is observed.

KUGAARUK CLIMATE
NUNAVUT

68°32'15.060" N
89°47'47.020" W
15.80 m
2303094
71407
NBB

Download Data

Hourly Data (October 2013)
Hourly Data Report for October 24, 2013
Temp Definition
°C
Dew Point Temp Definition
°C
Rel Hum Definition
%
Wind Dir Definition
10's deg

Wind Spd Definition
km/h
Visibility Definition
km
Stn Press Definition
kPa
Hmdx Definition


Wind Chill Definition


Weather Definition


TIME
00:00 -8.3 -9.6 90 5 2   101.28   -9 LegendNANA
01:00 -8.2 -9.4 91 5 2   101.25   -9 LegendNANA
02:00 -8.0 -9.2 91 3 6   101.21   -11 LegendNANA
03:00 -7.8 -8.9 92 4 6   101.16   -11 LegendNANA
04:00 -6.5 -8.7 84 23 7   101.13   -10 LegendNANA
05:00 -6.8 -8.9 85 23 15   101.08   -13 LegendNANA
06:00 -6.8 -9.5 81 22 13   101.05   -12 LegendNANA
07:00 -6.7 -9.7 79 21 4   100.97   -9 LegendNANA
08:00 -6.6 -9.7 79 18 9   100.90   -11 LegendNANA
09:00 -6.2 -9.9 75 15 11   100.84   -11 LegendNANA
10:00 -6.3 -9.9 76 19 4   100.80   -8 LegendNANA
11:00 -5.9 -10.2 72 18 6   100.76   -9 LegendNANA
12:00 -6.5 -9.5 79 4 6   100.69   -9 LegendNANA
13:00 -6.1 -9.0 80 20 2   100.64   -7 LegendNANA
14:00 -5.8 -8.3 82 18 9   100.57   -10 LegendNANA
15:00 -5.9 -8.5 82 23 9   100.53   -10 LegendNANA
16:00 -6.9 -8.7 87 4 4   100.47   -9 LegendNANA
17:00 -6.9 -8.2 90 1 6   100.41   -10 LegendNANA
18:00 -7.3 -8.7 90 1 6   100.34   -10 LegendNANA
19:00 -5.3 -6.0 95 21 13   100.27   -10 LegendNANA
20:00 -4.5 -5.6 92 22 24   100.22   -12 LegendNANA
21:00 -4.3 -5.4 92 25 20   100.19   -11 LegendNANA
22:00 -4.4 -5.5 92 27 22   100.19   -11 LegendNANA
23:00 -4.9 -6.2 91 27 17   100.20   -11 LegendNANA

Notes on Data Quality.

Legend

  • E = Estimated
  • M = Missing
  • NA = Not Available
  • ‡ = Partner data that is not subject to review by the National Climate Archives
Date modified: